Probability
0 0 0 0 0 0 0 0 0 0 0 0 0 0 0 0 0 1 2 2 1 0 0 0 0 0 0 0 0 0 0 0 0 0 0 0 0 0 0 0 0 0 0 0
0 0 0 0 0 0 0 0 0 0 0 0 0 0 0 0 0 1 2 2 1 0 0 0 0 0 0 0 0 0 0 0 0 0 0 0 0 0 0 0 0 0 0 0
0 0 0 0 0 0 0 0 0 0 0 0 0 0 0 0 0 0 1 2 2 1 0 0 0 0 0 0 0 0 0 0 0 0 0 0 0 0 0 0 0 0 0 0
0 0 0 0 0 0 0 0 0 0 0 0 0 0 0 0 0 0 0 1 3 3 1 0 0 0 0 0 0 0 0 0 0 0 0 0 0 0 0 0 0 0 0 0
0 0 0 0 0 0 0 0 0 0 0 0 0 0 0 0 0 0 0 1 3 4 3 1 0 0 0 0 0 0 0 0 0 0 0 0 0 0 0 0 0 0 0 0
0 0 0 0 0 0 0 0 0 0 0 0 0 0 0 0 0 0 0 0 2 3 3 1 0 0 0 0 0 0 0 0 0 0 0 0 0 0 0 0 0 0 0 0
0 0 0 0 0 0 0 0 0 0 0 0 0 0 0 0 0 0 0 0 0 2 2 1 0 0 0 0 0 0 0 0 0 0 0 0 0 0 0 0 0 0 0 0
0 0 0 0 0 0 0 0 0 0 0 0 0 0 0 0 0 0 0 0 0 1 2 1 0 0 0 0 0 0 0 0 0 0 0 0 0 0 0 0 0 0 0 0
0 0 0 0 0 0 0 0 0 0 0 0 0 0 0 0 0 0 0 0 0 1 1 1 0 0 0 0 0 0 0 0 0 0 0 0 0 0 0 0 0 0 0 0
0 0 0 0 0 0 0 0 0 0 0 0 0 0 0 0 0 0 0 0 0 0 0 0 0 0 0 0 0 0 0 0 0 0 0 0 0 0 0 0 0 0 0 0
0 0 0 0 0 0 0 0 0 0 0 0 0 0 0 0 0 0 0 0 0 0 0 0 0 0 0 0 0 0 0 0 0 0 0 0 0 0 0 0 0 0 0 0
0 0 0 0 0 0 0 0 0 0 0 0 0 0 0 0 0 0 0 0 0 0 0 0 0 0 0 0 0 0 0 0 0 0 0 0 0 0 0 0 0 0 0 0
0 0 0 0 0 0 0 0 0 0 0 0 0 0 0 0 0 0 0 0 0 0 0 0 0 0 0 0 0 0 0 0 0 0 0 0 0 0 0 0 0 0 0 0
0 0 0 0 0 0 0 0 0 0 0 0 0 0 0 0 0 0 0 0 0 0 0 0 0 0 0 0 0 0 0 0 0 0 0 0 0 0 0 0 0 0 0 0
0 0 0 0 0 0 0 0 0 0 0 0 0 0 0 0 0 0 0 0 0 0 0 0 0 0 0 0 0 0 0 0 0 0 0 0 0 0 0 0 0 0 0 0
0 0 0 0 0 0 0 0 0 0 0 0 0 0 0 0 0 0 0 0 0 0 0 0 0 0 0 0 0 0 0 0 0 0 0 0 0 0 0 0 0 0 0 0
0 0 0 0 0 0 0 0 0 0 0 0 0 0 0 0 0 0 0 0 0 0 0 0 0 0 0 0 0 0 0 0 0 0 0 0 0 0 0 0 0 0 0 0
0 0 0 0 0 0 0 0 0 0 0 0 0 0 0 0 0 0 0 0 0 0 0 0 0 0 0 0 0 0 0 0 0 0 0 0 0 0 0 0 0 0 0 0
0 0 0 0 0 0 0 0 0 0 0 0 0 0 0 0 0 0 0 0 0 0 0 0 0 0 0 0 0 0 0 0 0 0 0 0 0 0 0 0 0 0 0 0
0 0 0 0 0 0 0 0 0 0 0 0 0 0 0 0 0 0 0 0 0 0 0 0 0 0 0 0 0 0 0 0 0 0 0 0 0 0 0 0 0 0 0 0
0 0 0 0 0 0 0 0 0 0 0 0 0 0 0 0 0 0 0 0 0 0 0 0 0 0 0 0 0 0 0 0 0 0 0 0 0 0 0 0 0 0 0 0
0 0 0 0 0 0 0 0 0 0 0 0 0 0 0 0 0 0 0 0 0 0 0 0 0 0 0 0 0 0 0 0 0 0 0 0 0 0 0 0 0 0 0 0
0 0 0 0 0 0 0 0 0 0 0 0 0 0 0 0 0 0 0 0 0 0 0 0 0 0 0 0 0 0 0 0 0 0 0 0 0 0 0 0 0 0 0 0
0 0 0 0 0 0 0 0 0 0 0 0 0 0 0 0 0 0 0 0 0 0 0 0 0 0 0 0 0 0 0 0 0 0 0 0 0 0 0 0 0 0 0 0
0 0 0 0 0 0 0 0 0 0 0 0 0 0 0 0 0 0 0 0 0 0 0 0 0 0 0 0 0 0 0 0 0 0 0 0 0 0 0 0 0 0 0 0
0 0 0 0 0 0 0 0 0 0 0 0 0 0 0 0 0 0 0 0 0 0 0 0 0 0 0 0 0 0 0 0 0 0 0 0 0 0 0 0 0 0 0 0
Wind_Speed
4 5 2 1 2 3 3 3 1 2 1 1 1 3 4 3 2 3 3 3 3 3 2 2 2 3 3 3 2 2 3 2 2 1 1 2 2 2 2 3 3 4 4 4
5 3 2 1 1 3 3 3 1 1 2 0 0 4 4 3 4 5 5 5 4 3 1 1 1 2 2 2 2 2 2 2 2 1 1 1 1 2 2 2 3 4 4 4
4 1 2 2 3 3 1 2 2 1 2 1 1 3 3 3 2 2 3 3 4 5 4 3 2 2 1 2 2 1 1 2 2 2 2 3 2 2 2 2 3 4 4 4
4 3 2 3 2 1 0 1 2 1 1 1 1 2 5 3 3 3 4 3 4 4 4 4 3 2 2 2 2 2 2 2 2 2 3 3 2 1 1 1 2 3 4 4
2 3 3 3 1 0 2 1 1 2 2 0 1 1 6 1 4 5 5 4 4 4 5 4 4 3 2 1 2 2 2 2 2 2 3 3 2 1 1 1 2 3 3 4
1 1 1 1 2 1 1 1 2 2 2 1 3 3 6 4 6 4 4 5 4 4 4 4 3 2 1 1 1 2 2 2 2 2 3 3 2 1 2 2 2 2 2 2
4 3 3 2 2 2 2 4 3 4 3 4 1 2 8 5 4 5 5 5 4 4 4 4 3 2 2 1 1 1 2 2 2 2 2 2 2 2 2 1 1 1 1 2
2 3 3 3 0 1 0 3 5 3 3 4 2 4 7 3 3 2 3 3 4 4 4 4 4 3 3 2 2 2 2 2 2 2 2 2 2 1 1 1 0 0 1 1
3 2 2 1 1 0 2 1 2 4 1 1 4 5 7 1 1 0 2 2 4 4 4 3 3 3 3 2 2 3 2 2 1 2 2 2 2 1 1 1 1 0 1 1
3 1 3 3 1 3 1 3 3 3 3 2 4 4 5 4 4 3 3 3 4 3 3 3 2 2 2 2 2 2 2 2 2 2 2 1 1 1 1 1 1 1 1 1
2 3 3 3 1 0 1 1 2 2 3 3 2 7 5 5 4 5 5 4 4 4 4 3 2 2 1 1 2 2 2 2 1 1 2 2 1 1 1 1 0 0 1 1
1 3 1 3 2 1 1 1 3 3 2 2 2 8 3 3 3 3 4 4 4 4 3 3 2 2 2 1 1 2 2 2 1 1 2 1 1 1 1 1 0 1 0 1
2 4 3 5 3 2 1 1 2 3 3 3 3 8 2 0 0 2 3 3 3 3 3 2 2 2 2 2 1 1 1 1 1 1 1 1 1 1 1 0 1 1 1 1
3 3 5 6 5 2 3 3 2 3 3 4 7 8 6 4 3 3 3 3 3 3 3 3 3 2 2 2 2 2 1 1 1 1 1 1 0 0 0 0 0 0 1 1
3 2 2 3 2 2 4 5 4 6 6 7 7 7 11 6 5 5 3 3 2 2 3 4 4 3 3 2 2 2 2 1 1 2 1 1 0 0 1 1 1 1 1 1
3 3 1 3 2 2 5 7 6 7 6 7 6 11 10 5 3 3 4 4 4 5 5 4 4 4 3 3 3 2 2 2 2 2 1 1 1 1 1 1 1 1 1 1
3 4 2 3 4 3 8 9 10 7 8 8 11 12 5 3 5 6 6 6 7 6 6 5 5 5 5 4 4 4 3 2 2 2 1 1 1 1 1 1 1 0 0 1
5 4 3 0 3 5 9 2 8 7 8 10 9 7 6 6 4 4 5 7 7 6 6 6 5 4 4 3 3 3 2 2 2 2 1 1 1 1 0 1 1 0 0 0
3 5 4 3 2 10 9 4 7 7 8 10 13 11 7 3 2 5 6 7 8 7 6 5 5 4 4 4 4 4 3 2 2 2 2 2 2 1 1 1 1 1 0 0
3 3 5 4 3 8 7 2 4 4 7 6 10 11 7 4 2 6 3 4 5 4 4 4 3 3 3 3 4 4 3 3 3 3 2 2 2 2 2 2 1 1 1 1
3 2 4 5 6 12 8 4 6 4 8 3 7 8 9 9 8 4 2 2 2 3 3 4 4 4 4 4 4 4 4 4 4 2 2 2 2 2 2 2 1 1 1 0
11 9 8 6 5 13 6 9 11 10 2 3 5 6 8 7 4 3 3 3 3 3 3 4 4 3 3 4 5 5 5 4 3 3 3 2 2 2 1 2 1 1 1 1
10 11 10 13 12 5 9 10 7 3 4 4 5 5 6 5 5 5 4 4 4 4 4 4 5 4 3 4 5 6 5 3 3 3 3 2 2 1 1 2 2 1 1 1
6 4 5 7 12 8 8 8 7 6 6 5 5 5 6 6 6 5 5 5 5 4 5 4 5 5 4 4 4 5 4 4 4 4 3 3 2 2 1 1 2 2 2 2
8 8 6 8 9 7 8 12 12 9 7 6 5 6 7 7 7 7 6 6 6 5 4 5 6 6 6 4 4 4 4 4 5 4 3 3 3 3 2 2 2 3 3 4
9 12 12 12 10 9 8 6 7 8 9 9 7 6 6 8 9 7 7 6 6 5 5 5 6 6 6 5 5 4 4 5 5 4 4 3 3 3 2 2 2 3 4 4
Wind_Direction
35 67 68 231 195 154 138 133 163 250 298 49 187 247 264 238 211 210 203 208 199 200 193 150 128 131 112 92 89 85 79 60 67 77 85 85 62 48 36 41 41 39 35 32
55 45 291 295 88 105 113 128 203 292 306 81 251 280 266 229 206 204 203 207 205 196 174 158 132 115 127 121 104 101 98 77 65 55 57 77 98 78 51 32 35 35 33 26
105 273 305 84 71 87 56 172 194 232 339 15 54 303 273 260 221 206 203 198 197 191 192 192 169 147 140 152 148 136 130 108 82 71 72 69 62 58 43 30 25 25 27 27
57 346 26 69 45 55 240 203 176 169 98 287 184 268 267 244 248 234 223 215 208 196 190 188 179 178 189 203 176 154 131 105 94 101 103 106 98 88 36 32 32 23 25 23
32 355 30 49 341 18 190 214 181 181 154 354 323 204 279 231 241 243 231 225 220 196 186 185 189 191 192 193 180 166 143 119 106 109 117 116 103 97 70 49 36 25 21 21
58 334 33 338 304 196 172 62 55 57 76 272 232 187 269 232 224 235 224 221 215 193 186 185 185 168 159 160 151 150 140 130 122 120 122 129 129 114 88 54 30 16 7 9
7 357 358 354 23 18 65 88 42 9 3 252 240 202 251 245 227 213 209 215 208 188 180 180 175 176 177 178 163 143 154 153 136 126 126 133 139 142 137 128 66 16 354 354
85 319 334 355 50 182 168 130 147 187 229 280 315 238 255 255 258 226 186 184 183 191 186 189 186 185 189 196 185 177 170 166 145 138 132 122 132 140 143 135 110 35 335 342
140 260 318 324 314 93 118 128 149 130 74 317 276 282 294 261 289 219 159 168 195 197 193 198 193 188 193 199 202 186 174 155 136 129 120 102 96 98 101 72 66 23 356 6
135 160 305 315 1 11 87 140 103 118 136 272 294 271 252 249 245 242 216 217 212 193 195 193 194 192 198 201 187 155 150 149 145 132 126 115 104 102 98 88 61 30 17 15
116 120 322 3 44 275 31 76 101 111 151 158 262 271 230 220 218 212 219 218 210 197 202 197 192 182 168 132 131 135 132 127 122 119 113 111 100 96 94 97 87 10 12 4
119 113 291 271 255 276 220 188 154 151 230 199 213 270 275 221 218 193 205 211 207 199 194 183 174 157 139 132 131 132 128 131 139 123 112 110 107 98 92 82 358 18 3 348
125 109 51 349 332 335 294 241 172 140 127 171 197 263 302 317 248 210 205 206 202 194 187 172 168 169 168 157 148 130 132 154 141 128 128 119 119 114 110 28 1 12 14 12
103 121 166 199 230 209 248 242 190 144 171 210 226 250 277 269 259 255 233 212 202 201 191 185 189 192 183 169 170 165 169 165 146 135 134 146 184 170 171 81 27 7 31 30
103 158 225 258 277 241 238 236 201 202 204 206 235 241 256 247 236 235 221 207 202 216 208 203 200 201 192 181 182 181 180 169 150 139 154 205 208 121 89 72 52 40 39 27
94 135 102 307 311 277 274 255 222 226 228 234 259 270 260 244 219 220 213 202 211 222 220 214 209 202 199 196 195 196 191 180 148 158 188 177 91 80 83 82 77 62 38 23
131 124 114 280 322 355 281 233 199 208 212 196 221 241 244 223 220 217 213 210 214 218 216 213 213 209 204 199 192 195 193 165 150 166 170 133 122 113 113 102 85 63 356 358
142 128 128 102 34 254 247 187 186 208 235 217 232 242 230 228 240 236 216 211 219 214 210 210 207 204 198 187 179 174 158 154 158 165 170 165 155 159 117 105 119 65 21 333
151 140 124 128 234 279 289 219 175 192 261 220 222 238 243 240 328 281 236 212 217 211 205 202 197 191 181 177 172 155 155 159 162 185 201 199 182 181 171 181 213 214 163 293
83 103 123 139 184 244 252 180 159 125 282 234 203 219 215 157 211 261 232 199 207 196 184 178 168 160 171 181 160 155 172 177 196 207 210 200 185 188 194 204 209 193 176 233
145 134 160 176 225 259 246 157 134 172 246 212 188 199 185 192 214 217 168 176 179 175 172 163 160 168 183 171 157 169 183 206 213 196 182 181 190 199 204 201 197 181 177 158
174 170 186 163 208 254 190 150 188 215 229 184 189 191 193 210 222 214 208 201 186 174 169 165 165 176 175 166 166 182 205 212 185 167 170 186 194 198 187 180 191 178 174 189
199 192 185 192 214 238 179 202 219 203 213 214 202 201 190 202 221 218 215 212 206 200 193 181 176 179 186 180 178 194 209 182 167 164 178 188 182 186 181 184 191 190 193 213
233 196 195 244 256 245 230 241 244 224 223 225 208 198 191 209 220 220 216 213 208 205 198 186 180 191 207 202 195 202 191 173 169 177 185 182 179 186 190 199 198 199 207 218
207 173 201 247 266 285 259 230 232 233 231 233 230 218 212 211 222 220 220 218 213 208 202 193 196 206 214 203 203 198 181 170 178 185 188 188 189 189 193 206 217 218 224 218
189 181 186 222 217 205 235 223 206 211 222 219 219 234 225 211 219 221 224 220 213 209 200 202 208 212 213 201 206 200 185 180 182 190 195 196 193 191 194 201 240 246 238 246